Theta_e
317 316 316 316 316 317 316 316 317 317 316 316 317 318 319 317 316 307 302 308 309 317 318 311 309 307 306 303 302 299 291 290 294 296 298 299 300 308 314 325 330 333 333 337 345
316 316 315 316 316 317 317 316 316 316 316 316 316 317 318 317 306 302 312 318 319 318 310 306 300 304 299 300 300 296 290 292 299 300 299 299 302 304 311 319 327 332 340 343 343
316 316 316 316 315 316 316 316 315 315 316 315 315 316 317 314 298 300 317 321 321 319 310 307 302 303 297 297 298 294 292 297 301 303 303 300 302 306 306 307 317 328 333 338 339
316 316 316 316 315 316 315 314 313 313 314 314 314 315 316 308 289 299 320 322 323 315 311 302 299 297 295 294 297 293 297 300 302 304 303 300 305 305 305 307 321 332 335 335 336
313 314 315 315 315 315 315 314 312 313 313 313 314 315 311 300 299 309 319 317 317 312 308 297 296 295 294 296 296 294 297 301 303 302 303 304 301 305 306 311 319 332 332 332 332
311 312 313 313 314 314 314 314 313 313 312 313 314 315 306 296 310 309 309 315 312 309 306 297 296 298 295 296 295 297 297 300 300 301 302 302 302 306 308 312 313 329 329 329 331
311 312 312 313 313 313 313 313 312 311 311 313 314 312 303 300 309 309 308 304 311 308 302 300 297 298 296 293 296 296 293 297 298 299 299 303 300 303 310 311 310 311 314 320 324
314 313 312 312 313 312 312 312 312 313 312 313 314 309 299 309 310 308 308 306 310 310 304 304 299 295 295 296 295 293 291 291 298 299 300 301 295 304 310 309 308 310 311 315 316
313 312 312 312 312 312 312 312 312 313 313 312 308 306 298 311 305 309 308 305 309 310 307 307 298 293 292 289 287 289 285 287 293 298 300 298 294 302 310 309 308 308 310 311 311
310 310 311 311 311 311 312 311 311 310 309 310 309 299 303 301 306 309 308 308 306 305 301 296 291 287 285 286 283 284 286 287 291 294 297 298 299 305 308 309 309 309 310 309 309
308 309 309 310 310 310 307 301 294 295 299 295 297 297 303 307 311 306 307 306 304 299 290 292 284 285 287 287 289 289 288 288 291 296 296 297 299 304 306 305 305 306 307 309 309
308 308 308 309 309 309 304 295 298 300 293 300 301 301 304 306 300 304 308 300 297 292 293 287 282 287 291 291 290 289 287 286 291 297 297 297 298 304 306 305 305 306 306 307 308
309 308 308 308 308 305 301 299 304 303 294 298 300 299 302 304 298 301 304 300 297 293 288 285 288 291 290 288 288 286 286 287 289 296 299 296 294 299 304 306 306 306 306 307 307
309 308 308 308 301 299 294 302 303 304 289 291 294 299 302 303 297 307 305 302 297 293 290 288 291 290 288 288 289 284 291 291 292 290 286 296 284 293 300 303 305 305 303 305 307
308 309 307 307 299 295 297 301 306 303 278 295 296 307 303 299 302 302 306 299 293 292 291 288 288 288 286 288 291 288 293 291 291 288 287 289 286 289 295 299 302 305 303 304 306
308 307 307 303 301 299 300 301 304 289 279 294 299 297 297 300 301 303 300 300 298 292 292 290 293 291 289 293 294 294 291 290 287 285 280 285 288 287 290 295 300 304 306 302 302
308 307 304 304 294 298 300 298 288 281 294 289 294 297 297 296 297 297 293 291 287 283 283 288 289 291 294 289 291 290 284 278 277 278 278 287 286 288 295 297 299 300 302 300 306
305 305 301 301 301 301 300 295 281 288 291 296 294 297 293 295 295 294 291 288 292 289 285 282 281 289 293 290 286 286 285 279 276 277 280 288 283 288 298 304 305 303 299 303 314
304 295 303 302 302 301 297 284 284 291 295 292 292 292 291 294 293 292 290 289 292 290 285 284 284 292 294 292 291 286 283 288 283 284 281 283 288 295 300 302 304 303 299 307 318
296 291 302 307 304 299 295 288 291 298 298 296 286 295 289 291 290 290 290 294 294 294 291 287 283 290 292 293 290 290 291 284 283 278 277 282 287 286 295 298 302 302 299 309 320
292 293 303 308 306 297 286 288 294 299 299 293 288 293 293 292 290 289 290 293 297 294 294 287 286 287 290 287 286 288 286 286 286 283 279 278 283 294 297 298 300 300 301 310 317
293 292 305 307 293 293 289 291 294 297 300 297 297 297 295 297 293 289 289 293 297 294 289 289 286 283 287 292 292 290 289 288 282 283 285 284 284 301 300 302 302 300 305 308 311
292 291 302 300 286 288 292 292 296 296 297 295 295 299 299 296 292 295 293 296 295 293 291 291 284 281 285 290 294 288 289 289 289 289 286 281 284 303 304 303 304 300 302 306 307
288 282 287 290 291 289 289 290 291 298 298 299 296 299 298 295 298 294 296 301 295 294 305 298 287 285 282 286 291 291 292 292 290 283 287 287 290 298 301 302 304 305 303 304 307
286 283 290 284 286 288 291 292 290 291 296 298 296 297 296 292 293 292 297 297 300 305 296 291 285 291 293 296 295 293 293 293 291 290 288 292 293 297 302 304 306 304 303 303 303
285 288 291 288 291 290 291 289 289 291 293 293 294 296 297 293 294 292 295 295 295 298 293 293 289 291 292 296 296 292 294 294 294 295 295 295 294 303 307 309 307 303 302 301 302
294 294 292 288 287 287 288 290 291 293 295 297 297 296 295 298 299 298 298 299 298 295 293 292 290 286 285 293 293 290 292 293 293 294 296 292 297 305 304 305 305 302 302 302 302
Wind_Speed
12 13 12 13 13 13 12 11 12 13 12 12 14 12 11 10 9 3 16 14 12 22 8 6 4 5 3 3 4 4 4 4 6 6 4 1 2 2 2 4 5 3 2 8 14
13 13 12 12 13 13 13 12 14 12 13 14 13 12 11 10 7 14 20 20 24 9 8 6 7 9 3 4 3 5 5 9 5 4 2 2 1 2 3 3 6 11 12 13 13
15 15 13 13 13 12 13 12 12 15 14 13 12 12 11 7 5 11 6 10 25 20 5 7 3 8 6 3 4 6 7 5 4 4 1 3 3 3 5 1 5 13 16 11 11
19 18 16 15 15 15 13 12 14 16 15 13 13 13 10 1 8 1 10 17 12 14 6 6 6 10 6 6 4 5 5 5 4 3 4 4 5 2 1 1 6 8 16 10 9
19 19 16 16 15 16 15 14 14 15 16 15 14 13 6 6 14 12 20 15 13 13 12 7 7 7 8 6 4 3 3 4 3 3 4 3 3 2 2 3 5 13 9 11 11
18 19 19 16 16 15 16 15 15 14 16 16 15 11 5 14 6 7 8 7 9 11 9 6 9 6 7 7 5 6 4 2 1 0 2 2 2 2 4 1 7 11 11 10 12
17 17 19 18 17 16 16 17 15 18 16 16 16 9 11 21 3 4 5 2 2 5 7 3 3 6 7 6 4 3 3 4 4 3 4 6 2 5 5 5 7 6 4 8 9
16 16 19 20 18 17 19 16 16 18 19 15 16 9 12 4 8 13 6 4 7 8 3 5 1 6 5 5 4 6 2 8 5 9 4 5 2 6 5 9 7 6 1 3 3
20 19 19 20 21 21 19 19 22 22 18 14 7 6 11 3 7 10 9 6 12 9 0 3 1 3 3 9 5 6 6 4 1 9 4 4 4 8 7 6 8 8 6 6 7
22 22 21 21 21 20 19 20 20 13 6 6 7 4 8 7 6 3 11 11 7 9 4 3 3 4 3 6 19 12 13 5 8 6 3 4 4 4 6 7 8 7 7 7 7
24 23 22 21 22 19 12 6 4 1 5 11 10 7 5 4 5 3 9 9 6 5 5 4 5 12 8 4 3 8 10 6 4 2 5 6 5 5 7 2 4 7 5 6 7
25 25 24 23 23 20 13 6 8 2 8 19 17 21 16 2 6 6 9 8 5 7 5 4 7 6 8 6 2 5 8 5 1 5 4 5 6 7 8 6 8 8 8 8 5
24 24 24 23 21 13 5 10 5 8 6 9 16 16 10 11 8 6 14 8 10 7 5 7 6 10 7 4 4 3 8 6 5 4 3 6 4 4 5 4 7 7 6 5 9
26 25 23 22 14 2 5 5 9 6 5 6 7 8 11 8 7 10 18 10 5 7 8 5 4 13 9 7 6 4 5 5 8 6 5 4 5 5 6 8 6 7 8 8 9
29 28 26 15 8 7 6 2 5 2 5 7 7 8 13 13 12 8 18 3 9 7 7 7 8 12 8 8 8 5 6 7 3 4 4 1 3 7 3 7 9 8 10 10 9
31 33 30 9 8 10 2 6 1 5 7 1 5 10 12 7 2 9 15 2 5 7 4 5 4 9 9 10 12 6 6 7 6 4 1 6 6 5 5 7 5 8 6 8 10
35 35 17 4 3 4 7 2 5 4 8 9 5 10 11 7 5 19 12 10 6 7 4 3 4 4 9 9 4 6 7 3 1 0 6 4 4 8 6 3 5 8 1 9 6
37 24 7 3 6 4 3 3 2 5 6 5 9 6 7 6 15 15 18 12 8 5 5 6 3 8 6 10 9 7 9 7 5 5 2 4 6 7 2 2 4 5 6 9 11
25 5 6 9 3 2 2 2 3 5 7 3 13 10 4 5 10 14 13 15 7 7 7 5 2 3 9 5 9 4 5 8 7 4 4 3 6 5 4 5 8 9 4 10 14
5 4 8 5 2 0 2 4 4 9 13 5 0 6 4 5 7 7 10 9 6 9 4 5 6 7 4 7 2 10 7 5 4 4 3 4 3 6 3 6 8 8 7 5 10
4 4 8 4 3 3 3 5 7 10 11 3 3 5 4 3 5 8 9 4 11 5 5 2 4 1 7 6 8 3 3 6 6 5 6 1 7 6 6 3 7 10 6 7 10
4 4 4 6 5 2 4 10 8 8 6 3 7 3 2 3 4 4 7 4 9 8 7 3 4 3 4 0 6 8 10 7 7 5 0 4 8 2 5 6 6 5 7 8 8
5 3 4 3 5 5 8 6 7 10 7 8 7 7 4 5 3 2 2 2 10 8 10 6 1 3 6 6 4 5 4 6 7 4 5 7 7 2 3 3 6 1 6 9 10
3 6 6 5 3 7 6 7 12 14 5 5 3 4 3 4 4 2 3 4 8 7 12 9 4 7 6 7 5 4 4 4 7 5 6 7 4 4 2 4 7 6 4 9 10
5 2 2 6 7 11 12 8 11 10 8 6 4 4 4 4 3 3 4 5 7 4 4 6 5 3 2 2 3 2 9 8 6 5 8 7 9 8 10 8 5 6 7 14 12
4 5 4 5 8 11 8 7 13 12 7 8 5 9 9 3 3 3 2 4 1 6 4 3 3 4 5 3 4 5 6 9 4 4 1 6 2 3 7 9 7 15 13 16 14
1 3 2 6 8 8 7 11 13 17 9 7 7 12 6 6 4 3 1 2 3 2 3 5 7 4 3 2 2 5 4 5 5 5 4 3 2 7 6 11 7 11 13 14 13
Wind_Direction
329 330 337 334 331 329 319 314 320 315 312 315 314 318 309 296 298 275 256 225 198 232 285 332 139 175 273 263 158 126 86 207 188 155 205 47 67 246 54 79 55 36 82 128 130
327 321 316 322 323 325 322 329 324 318 313 307 314 318 313 306 296 262 240 233 228 212 180 223 160 144 203 211 185 137 151 208 201 195 138 50 212 296 100 123 89 85 92 124 137
332 325 320 319 317 312 320 326 320 321 313 306 309 311 314 327 308 245 220 244 229 218 213 174 238 139 177 179 184 168 186 189 249 225 16 49 359 318 104 120 201 161 145 145 142
333 329 326 321 313 311 310 316 321 317 314 312 308 303 307 146 266 86 317 329 190 193 197 165 180 146 154 181 191 143 214 167 240 53 21 70 305 17 80 55 95 144 140 127 124
329 324 324 314 311 309 307 301 310 308 308 305 299 293 292 220 248 282 307 308 150 167 187 171 145 130 156 162 127 147 186 170 240 44 349 79 318 199 50 15 93 135 124 124 130
326 325 323 315 309 307 307 300 302 304 303 297 287 285 247 253 252 257 359 96 153 147 184 173 171 160 123 182 158 189 190 218 200 78 6 64 313 42 236 21 72 150 154 159 159
317 320 322 321 318 312 310 309 301 303 298 288 282 273 246 242 203 282 357 307 185 168 165 219 180 175 128 126 208 93 165 314 199 205 225 155 153 230 190 152 122 115 151 157 169
332 323 319 320 313 310 307 308 298 301 293 279 280 270 255 255 243 250 238 264 172 220 114 209 53 125 137 130 94 138 99 212 207 146 243 113 214 241 203 146 142 126 165 294 209
332 327 324 320 318 318 318 312 299 286 274 263 267 235 261 290 225 235 177 183 158 192 34 181 322 137 119 124 90 193 192 201 130 177 133 152 210 215 193 207 151 153 187 214 257
328 328 324 321 318 316 314 313 292 289 246 220 248 240 255 254 195 160 165 152 152 144 93 121 105 124 86 158 191 181 188 172 179 186 95 136 205 135 192 179 175 158 175 201 238
326 322 318 316 317 315 317 328 350 268 224 202 188 226 297 285 241 129 167 150 108 118 142 186 139 194 163 155 117 121 147 114 158 170 122 180 195 185 204 167 198 166 190 216 245
324 321 318 314 311 307 296 245 231 335 275 229 236 222 250 348 321 146 179 130 115 144 133 91 220 178 138 145 180 112 145 171 56 189 149 137 215 249 165 194 191 203 196 204 223
320 316 314 311 308 294 218 231 289 357 267 254 213 223 210 207 232 212 180 133 147 132 152 139 202 158 142 162 156 74 128 154 139 142 60 115 309 248 262 199 177 202 207 193 201
317 313 310 312 296 317 272 249 248 206 269 258 194 235 174 184 230 203 187 143 140 158 154 177 166 156 160 171 132 136 190 139 128 106 194 156 252 245 242 258 226 201 200 208 205
317 314 313 302 278 263 238 245 351 168 285 136 147 151 152 174 134 193 192 140 149 139 122 230 143 158 155 179 137 193 168 163 143 122 121 143 127 263 209 245 256 256 193 209 209
320 321 320 287 220 240 223 358 242 241 241 116 122 156 153 218 222 135 170 166 140 117 153 188 148 153 186 152 167 158 111 46 54 96 212 214 141 270 194 198 231 242 236 202 176
329 324 328 251 242 296 132 199 211 272 343 349 354 157 186 167 142 148 153 182 148 112 141 147 173 190 135 137 132 124 91 60 20 214 215 169 113 231 258 216 243 271 241 194 176
333 328 317 257 245 35 155 216 325 287 10 77 328 223 207 124 153 161 159 185 231 108 125 148 165 154 174 158 157 162 143 150 157 139 205 164 227 249 217 164 292 272 247 174 171
332 326 8 360 11 79 306 37 248 346 356 14 319 183 204 155 137 151 166 185 191 204 132 137 207 131 160 132 133 178 137 188 97 22 72 227 309 319 350 332 359 329 215 182 177
342 333 18 348 78 25 329 310 319 358 324 43 59 268 129 139 117 144 163 190 180 200 141 193 113 153 175 95 69 151 165 91 9 112 175 277 258 236 312 323 322 309 246 187 162
22 48 339 353 321 16 30 297 309 344 55 14 301 302 32 56 106 147 185 177 177 188 111 118 93 45 109 165 156 84 120 61 113 127 163 164 267 215 207 258 278 283 215 169 166
339 40 319 337 36 51 330 312 290 331 341 223 221 268 14 24 90 119 173 193 173 141 144 203 119 117 177 1 169 158 166 138 123 220 2 149 263 224 231 269 255 221 170 141 139
1 311 335 16 29 358 329 314 319 327 335 25 333 7 351 23 86 65 163 191 154 141 159 184 43 50 9 2 25 137 145 118 111 87 192 138 257 163 269 41 13 29 156 130 122
23 13 335 17 324 335 333 339 339 336 0 325 270 332 346 19 12 76 55 20 173 165 164 111 118 147 166 199 146 132 145 150 126 115 182 210 184 252 188 79 42 9 59 102 102
18 33 12 325 342 333 350 338 341 348 353 317 339 304 344 349 16 48 21 356 48 26 72 112 142 94 35 113 111 150 140 160 163 183 148 206 182 187 187 169 113 49 82 96 85
37 348 341 282 316 335 4 344 342 338 301 331 343 343 331 299 59 60 20 29 120 344 85 20 113 92 33 5 13 74 103 114 95 122 347 114 150 97 98 92 89 89 82 88 93
343 277 271 290 336 350 342 338 321 327 298 325 325 298 272 294 210 165 98 189 173 120 114 102 125 90 163 20 124 56 271 120 98 64 121 178 214 137 103 90 86 98 96 96 92